STARLINK-32434, 61913

Orbit data source: Space-Track

STARLINK-32434, 61913 is a payload satellite owned by SpaceX/Seattle (US) in LEO that was launched on Mon, 11 Nov 2024 UTC via an FALCON 9 launch vehicle from the Air Force Eastern Test Range (AFETR). Payload-class satellites include a variety of spacecraft equipped with specific instruments for various scientific and technological missions. These include communications satellites like Starlink; space stations such as the ISS; scientific satellites like the Hubble; Earth observation satellites from companies like Planet Labs, Umbra, and HawkEye 360; GPS; miniature CubeSats for education and research; and military/defense satellites.

Loading next visibility...
Identifier
61913, 2024-207B
Orbit
LEO
Country
Flag of USUS
Related business
Manufacturer
SpaceX/Seattle
Mission
Operational Commercial Communications
Bus & Motor
STARLINK V2M, Unknown motor
Mass
730 kg wet, ~700 kg dry
Launch date (UTC)
2024-11-11 (2 years ago)
Launch vehicle
FALCON 9
Launch site
Air Force Eastern Test Range (AFETR)
Object type
Payload
Rocket body
Debris
Shape & HBR
Box + 2 Pan, 17.7 m
Radar Cross Section
33.884 m², Large (>1 m²)

Expand to show TLE details & history
Last TLE update: 18 hours ago

TLE from 18 hours ago
0 STARLINK-32434
1 61913U 24207B   26199.56154850  .00006803  00000-0  25641-3 0  9994
2 61913  43.0024 262.9623 0001702 275.8170  84.2487 15.27593480 94735
Epoch: 2026-07-18T13:28Z
TLE epoch observation values (Epoch: 2026-07-18T13:28:37.790Z)
Latitude
-0.00006°
Longitude
124.43225°
Altitude
482.668 km
Speed
7.626 km/s
True Right ascension
17h 31m 50s
True Declination
0° 00' 00"
Sunlit
Object was in full shadow at epoch
Visualization orbit readout
Latitude
Unknown
Longitude
Unknown
Altitude
Unknown
Speed
Unknown
Apparent Right ascension
Unknown
Apparent Declination
Unknown
Sunlit
N/A
Visualization observer readout
Local Sidereal Time
19:54:40
Azimuth
Unknown
Elevation
Unknown
Doppler factor
Unknown
Orbital elements
Apogee altitude
486.122 km
Perigee altitude
483.785 km
Semi-major axis
6,863.091 km
Eccentricity
0.00017
Inclination
43.0024°
RAAN
262.9623°
Arg. of periapsis
275.817°
True anomaly
84.26811°
Mean anomaly
84.2487°
Eccentric anomaly
84.2584°
Mean motion
3.81736 °/min
Orbital period
94.31 mins
BSTAR
0.00025641
Loading maneuver chart data...
Computing Atmospheric mass density...
Loading historical data...
Loading historical data...
Loading historical data...
Loading historical data...
Loading historical data...
Loading historical data...
Loading historical data...

Documentation

Showing up to 5 results
|